User: anonymous   Login
Location: Writing-on-Stone Provincial Park
(49.0825°N, 111.6163°W)
Time: 13:18:48
(UTC-06:00)
Language:

BREEZE-M DEB (TANK) - Orbit

View from above orbital plane
View from above orbital plane
View from above satellite
View from above satellite

Ground track
Ground track

The orbit data is extracted from the following two-line orbital elements,

1 29649U 06056B   17178.34031628 -.00001341 +00000-0 -34305-3 0  9997
2 29649 049.4854 226.3407 5364736 167.7040 213.9223 04.99633921188295
Epoch (UTC): 27 June 2017 08:10:03
Eccentricity: 0.5364736
inclination: 49.4854°
perigee height: 321 km
apogee height: 15829 km
right ascension of ascending node: 226.3407°
argument of perigee: 167.7040°
revolutions per day: 4.99633921
mean anomaly at epoch: 213.9223°
orbit number at epoch: 18829

The dashed part of the orbit path shows where the satellite is in the earth's shadow,  

DLR